Погода в Посадникове Острове

Россия / Санкт-Петербург и Ленинградская область     59°32′07″N   31°51′41″E
темп.,
°C
ветер,
м/с
пор.,
м/с
влажн.,
%
обл.,
%
осадки,
мм/ч
давл.,
гПа
погр.,
м
28 июля, ср
ср2800:00+18в2263100 0.0 101542
03:00+17вюв2370100 0.0 101451
06:00+17юв2675100 0.0 1013132
09:00+22ююв3561100 0.0 1012396
12:00+26ю3650100 0.0 10101223
15:00+28юз4447100 0.0 10091891
18:00+21юз2478100 0.2 1008115
21:00+18юв2294100 1.9 100733
29 июля, чт
чт2900:00+18юв129852 2.4 100682
03:00+16юз239995 2.4 100581
06:00+17юз289816 0.0 1004235
09:00+20зюз4875100 0.0 1004497
12:00+23з365512 0.0 10041001
15:00+26зюз484112 0.0 10021764
18:00+21з267095 0.1 1001175
21:00+19юз22805 0.1 100135
30 июля, пт
пт3000:00+18зюз12826 0.0 100256
03:00+15зюз23935 0.0 100148
06:00+15юз3108728 0.0 1001349
09:00+20зюз466495 0.0 1002950
12:00+21юз485532 0.9 10011789
15:00+22юз484598 0.9 10011884
18:00+21юз4847100 0.0 10001381
21:00+16ю39683 0.0 999230
31 июля, сб
сб3100:00+15ююз3107916 0.2 999302
03:00+13ю4128044 0.2 997434
06:00+12ююз41296100 2.2 997790
09:00+15юз4109194 2.3 997961
12:00+20зюз596181 0.7 9981632
15:00+24з69366 0.8 9982399
18:00+23зюз475099 0.0 10001443
21:00+17зюз38904 0.5 1001226
1 августа, вс
вс100:00+15юз259811 0.0 1001109
03:00+14ююз2498100 0.0 100188
06:00+15ю3997100 0.5 1000304
09:00+16ю389774 1.4 1000539
12:00+18ююз488386 0.1 1001886
15:00+21юз495598 0.4 10001525
18:00+22зюз4105915 0.2 10011731
21:00+18юз410640 0.6 1002551